Probability
0 0 0 0 0 0 0 0 0 0 0 0 0 0 0 0 0 0 0 0 0 0 0 0 0 0 0 0 0 0 0 0 0 0 0 0 0 0
0 0 0 0 0 0 0 0 0 0 0 0 0 0 0 0 0 0 0 0 0 0 0 0 0 0 0 0 0 0 0 0 0 0 0 0 0 0
0 0 0 0 0 0 0 0 0 0 0 0 0 0 0 0 0 0 0 0 0 0 0 0 0 0 0 0 0 0 0 0 0 0 0 0 0 0
0 0 0 0 0 0 0 0 0 0 0 0 0 0 0 0 0 0 0 0 0 0 0 0 0 0 0 0 0 0 0 0 0 0 0 0 0 0
0 0 0 0 0 0 0 0 0 0 0 0 0 0 0 0 0 0 0 0 0 0 0 0 0 0 0 0 0 0 0 0 0 0 0 0 0 0
0 0 0 0 0 0 0 0 0 0 0 0 0 0 0 0 0 0 0 0 0 0 0 0 0 0 0 0 0 0 0 0 0 0 0 0 0 0
0 0 0 0 0 0 0 0 0 0 0 0 0 0 0 0 0 0 0 0 0 0 0 0 0 0 0 0 0 0 0 0 0 0 0 0 0 0
0 0 0 0 0 0 0 0 0 0 0 0 0 0 0 0 0 0 0 0 0 0 0 0 0 0 0 0 0 0 0 0 0 0 0 0 0 0
0 0 0 0 0 0 0 0 0 0 0 0 0 0 0 0 0 0 0 0 0 0 0 0 0 0 0 0 0 0 0 0 0 0 0 0 0 0
0 0 0 0 0 0 0 0 0 0 0 0 0 0 0 0 0 0 0 0 0 0 0 0 0 0 0 0 0 0 0 0 0 0 0 0 0 0
0 0 0 0 0 0 0 0 0 0 0 0 0 0 0 0 0 0 0 0 0 0 0 0 0 0 0 0 0 0 0 0 0 0 0 0 0 0
0 0 0 0 0 0 0 0 0 0 0 0 0 0 0 0 0 0 0 0 0 0 0 0 0 0 0 0 0 0 0 0 0 0 0 0 0 0
0 0 0 0 0 0 0 0 0 0 0 0 0 0 0 0 0 0 0 0 0 0 0 0 0 0 0 0 0 0 0 0 0 0 0 0 0 0
0 0 0 0 0 0 0 0 0 0 0 0 0 0 0 0 0 0 0 0 0 0 0 0 0 0 0 0 0 0 0 0 0 0 0 0 0 0
0 0 0 0 0 0 0 0 0 0 0 0 0 0 0 0 0 0 0 0 0 0 0 0 0 0 0 0 0 0 0 0 0 0 0 0 0 0
0 0 0 0 0 0 0 0 0 0 0 0 0 0 0 0 0 0 0 0 0 0 0 0 0 0 0 0 0 0 0 0 0 0 0 0 0 0
0 0 0 0 0 0 0 0 0 0 0 0 0 0 0 0 0 0 0 0 0 0 0 0 0 0 0 0 0 0 0 0 0 0 0 0 0 0
0 0 0 0 0 0 0 0 0 0 0 0 0 0 0 0 0 0 0 0 0 0 0 0 0 0 0 0 0 0 0 0 0 0 0 0 0 0
0 0 0 0 0 0 0 0 0 0 0 0 0 0 0 0 0 0 0 0 0 0 0 0 0 0 0 0 0 0 0 0 0 0 0 0 0 0
0 0 0 0 0 0 0 0 0 0 0 0 0 0 0 0 0 0 0 0 0 0 0 0 0 0 0 0 0 0 0 0 0 0 0 0 0 0
0 0 0 0 0 0 0 0 0 0 0 0 0 0 0 0 0 0 0 0 0 0 0 0 0 0 0 0 0 0 0 0 0 0 0 0 0 0
0 0 0 0 0 0 0 0 0 0 0 0 0 0 0 0 0 0 0 0 0 0 0 0 0 0 0 0 0 0 0 0 0 0 0 0 0 0
0 0 0 0 0 0 0 0 0 0 0 0 0 0 0 0 0 0 0 0 0 0 0 0 0 0 0 0 0 0 0 0 0 0 0 0 0 0
Wind_Speed
2 2 2 1 1 1 2 2 3 1 2 3 2 3 3 2 4 3 4 7 8 8 8 9 9 9 8 8 8 9 8 8 9 9 9 8 8 8
2 3 2 1 2 2 2 1 2 3 1 2 2 2 3 3 4 3 3 6 8 7 7 7 7 7 7 7 7 7 7 7 7 7 7 7 7 7
2 2 2 2 2 1 2 2 2 2 2 1 1 2 3 3 3 3 3 3 3 6 6 6 6 6 6 6 6 6 5 6 6 6 6 6 6 7
1 2 2 2 2 2 2 2 1 1 2 1 1 2 2 2 2 3 3 3 2 5 5 5 5 5 5 5 5 5 4 5 5 5 6 6 6 6
1 2 1 2 1 1 2 2 1 2 2 2 0 1 1 2 2 2 3 3 3 3 4 4 4 4 4 4 4 4 3 3 4 4 5 6 6 6
1 1 1 2 2 2 2 1 2 2 2 2 1 1 1 1 1 2 2 2 2 3 4 3 4 5 5 4 4 3 3 3 3 4 5 5 6 6
0 0 0 1 2 2 2 2 3 2 1 1 0 0 1 1 1 1 1 2 3 2 2 2 2 2 3 4 4 4 4 4 4 4 5 5 6 6
1 1 1 0 1 1 2 3 5 3 3 2 1 1 2 2 1 1 1 1 3 2 1 3 1 3 3 3 5 6 5 5 5 6 6 5 6 7
2 1 1 0 1 0 0 1 1 2 4 4 3 3 2 3 2 1 1 2 3 2 0 3 2 3 4 4 7 7 7 7 7 6 6 6 7 7
2 2 2 1 1 1 1 1 1 1 2 2 3 3 3 2 3 2 2 2 3 2 1 2 3 3 4 4 7 8 7 7 7 7 7 7 8 8
2 2 2 2 2 2 2 1 2 3 2 2 3 3 3 2 2 2 1 0 2 3 1 2 3 3 3 4 5 7 7 7 7 8 9 8 8 8
1 1 2 3 3 3 3 2 2 3 2 2 2 3 2 2 3 3 3 2 2 3 2 2 2 2 4 3 3 3 4 7 9 9 10 9 8 5
1 1 2 3 3 3 3 3 4 2 1 1 2 2 2 2 2 3 3 3 3 4 3 3 2 2 3 4 4 3 4 4 4 5 8 10 9 6
2 2 1 1 2 2 2 3 3 1 0 1 1 2 3 3 3 3 4 4 5 6 4 3 3 3 3 4 5 4 4 4 4 5 5 7 8 9
2 1 1 0 1 1 2 2 1 0 0 1 2 3 3 3 2 2 3 3 4 5 5 4 4 4 3 5 5 4 4 4 4 4 5 5 5 5
0 1 2 3 2 2 2 2 1 1 1 2 3 3 2 2 2 2 2 2 3 4 4 5 5 5 5 6 6 7 5 4 4 4 5 6 6 5
2 2 2 2 2 2 2 2 1 1 1 2 2 2 2 2 3 2 2 2 2 4 5 3 3 4 6 5 6 7 6 6 6 5 5 6 7 7
4 2 1 1 1 1 2 2 2 2 2 2 2 2 3 3 3 3 2 2 4 4 5 4 3 3 3 5 8 8 6 7 6 6 5 6 8 7
3 1 1 0 1 1 1 1 2 2 2 2 2 2 3 3 3 4 3 3 4 5 5 4 3 3 5 8 5 7 6 6 6 5 5 6 8 8
1 1 0 1 1 1 1 2 2 2 2 2 2 3 3 3 4 4 4 5 5 5 5 4 4 4 6 8 7 6 8 7 6 7 7 6 7 9
0 0 0 1 1 1 1 2 2 2 2 2 2 3 3 3 4 4 5 7 6 5 6 6 6 8 6 5 7 7 6 8 9 8 7 7 8 6
0 0 1 1 1 1 1 1 2 2 3 2 3 3 3 3 4 5 5 5 5 6 7 7 6 5 4 6 9 10 9 8 8 12 12 11 7 7
0 0 1 1 1 1 1 2 2 2 3 3 3 3 4 4 4 5 5 6 6 7 7 7 6 5 6 7 9 10 12 11 8 7 8 11 14 16
Wind_Direction
80 88 90 82 95 107 124 138 140 137 304 306 318 326 337 346 4 11 11 26 33 36 41 43 44 45 45 45 45 44 43 43 41 39 37 37 36 34
77 83 74 67 78 85 107 101 116 143 194 290 289 308 327 356 13 15 11 24 27 32 35 38 39 39 40 41 41 40 38 37 37 35 32 29 27 24
63 83 75 79 81 72 79 84 80 106 131 302 319 335 352 359 0 4 6 8 3 16 25 31 31 32 31 32 32 31 28 27 28 27 23 20 17 13
88 86 71 83 77 72 82 86 91 95 126 151 330 347 351 0 0 358 358 2 352 2 8 14 22 23 20 19 20 20 20 19 16 15 12 8 3 359
137 128 126 109 95 87 95 97 94 88 87 123 149 335 335 356 5 357 357 346 341 352 353 358 1 359 359 0 1 4 7 6 3 0 357 356 354 349
131 148 158 163 175 151 127 132 118 100 86 94 100 342 323 334 10 351 342 338 327 341 344 339 341 339 335 330 330 334 331 329 333 337 337 334 334 334
103 276 210 185 187 172 155 161 139 121 109 107 104 356 314 319 296 287 294 316 301 316 328 316 322 321 319 314 312 313 313 309 308 309 312 315 317 319
189 277 296 274 229 192 172 160 156 154 162 155 184 225 257 241 233 225 231 343 307 312 329 303 314 294 287 281 289 293 298 298 298 297 298 303 305 305
196 218 263 166 117 121 72 92 180 184 172 167 187 221 232 225 186 212 220 224 250 277 334 286 290 286 285 285 287 285 287 290 290 291 292 294 297 297
204 205 208 239 191 158 131 65 312 280 237 202 209 228 229 208 183 199 215 248 278 277 179 268 285 281 294 288 288 287 284 283 288 288 288 292 294 293
221 200 192 214 226 161 145 196 298 301 287 248 237 254 267 241 166 118 98 344 299 284 204 241 281 295 290 282 291 295 289 285 284 288 289 288 290 290
248 238 221 217 224 182 174 188 245 269 285 318 311 311 300 278 220 192 191 200 255 282 244 222 269 306 305 289 296 300 295 287 285 284 289 289 288 286
217 249 253 236 234 214 185 200 240 251 252 258 285 299 303 285 263 239 212 202 215 244 236 195 236 242 257 290 294 283 279 284 289 287 287 290 287 278
213 231 241 239 243 247 226 253 266 288 266 284 291 290 285 282 277 262 247 241 238 246 239 196 220 225 248 276 282 285 283 277 275 280 284 292 289 282
209 198 176 62 353 327 322 317 309 219 201 264 273 273 270 275 285 290 283 271 271 266 258 226 232 242 235 254 269 273 287 285 268 273 280 280 282 283
149 71 68 59 52 17 4 352 340 249 228 253 277 284 299 302 292 280 284 298 298 293 269 244 240 238 250 257 263 274 268 274 283 276 281 283 279 270
107 68 50 36 20 5 355 345 342 345 314 293 290 299 304 307 301 298 283 288 277 294 304 298 262 251 249 258 268 269 272 273 273 279 281 283 279 273
101 83 62 34 358 341 338 334 332 319 303 298 301 301 303 305 307 308 291 284 290 290 293 301 317 320 305 268 237 262 272 275 279 275 267 277 284 280
91 83 66 344 314 315 308 303 303 304 307 309 309 309 310 310 308 307 305 298 291 288 291 297 300 297 300 299 278 229 260 280 283 281 269 266 278 283
79 94 306 305 305 304 304 303 308 322 326 319 316 314 313 311 312 311 307 301 298 297 297 294 282 272 272 285 290 283 251 263 278 284 285 280 275 278
108 328 306 307 308 308 312 314 317 319 321 320 316 313 312 309 306 305 303 302 300 298 297 292 283 282 279 284 287 286 274 254 260 275 287 291 292 290
45 338 322 318 312 313 319 325 331 328 326 320 313 309 305 302 301 303 302 300 297 294 293 293 297 299 283 279 285 291 294 294 276 268 266 263 273 277
339 341 335 330 328 328 329 329 325 319 315 311 309 305 303 299 295 293 293 294 296 298 300 301 302 295 288 283 285 289 293 298 299 295 284 275 270 270